Location: Unspecified
(50.7693°N, 0.0000°E)
Time: 20:56:13
(UTC+00:00)

SR - Pass Details

Date: 01 July 2019
Orbit: 580 x 875 km, 66.7° (Epoch: 17 July)

Event Time Altitude Azimuth Distance (km) Brightness Sun altitude
Rises 05:57:52 0° 310° (NW) 2,890 ? 16.8°
Reaches altitude 10° 06:01:49 10° 345° (NNW) 2,045 ? 17.4°
Maximum altitude 06:03:16 11° 4° (N) 1,984 ? 17.6°
Drops below altitude 10° 06:04:46 10° 22° (NNE) 2,097 ? 17.9°
Sets 06:09:00 0° 57° (ENE) 3,097 ? 18.5°
